QPF
0.00 0.00 0.00 0.00 0.00 0.00 0.00 0.00 0.00 0.00 0.00 0.00 0.00 0.00 0.00 0.00 0.00 0.00 0.00 0.00 0.00 0.00 0.00 0.00 0.00 0.00 0.00 0.00 0.00 0.00 0.00 0.00 0.00 0.00 0.00 0.00 0.00 0.00 0.00 0.01 0.01 0.02 0.02 0.02 0.01 0.00 0.00 0.00 0.00
0.00 0.00 0.00 0.00 0.00 0.00 0.00 0.00 0.00 0.00 0.00 0.00 0.00 0.00 0.00 0.00 0.00 0.00 0.00 0.00 0.00 0.00 0.00 0.00 0.00 0.00 0.01 0.00 0.00 0.00 0.00 0.00 0.00 0.00 0.00 0.00 0.00 0.00 0.00 0.00 0.00 0.01 0.01 0.01 0.00 0.00 0.00 0.00 0.00
0.00 0.00 0.00 0.00 0.00 0.00 0.00 0.00 0.00 0.00 0.00 0.00 0.00 0.00 0.00 0.00 0.00 0.00 0.00 0.00 0.00 0.00 0.00 0.00 0.00 0.01 0.01 0.01 0.00 0.00 0.00 0.00 0.00 0.00 0.00 0.00 0.00 0.00 0.00 0.00 0.00 0.01 0.01 0.01 0.01 0.00 0.00 0.00 0.00
0.00 0.00 0.00 0.00 0.00 0.00 0.00 0.00 0.00 0.00 0.00 0.00 0.00 0.00 0.00 0.00 0.00 0.00 0.00 0.00 0.00 0.00 0.00 0.00 0.00 0.00 0.01 0.00 0.00 0.00 0.00 0.00 0.00 0.00 0.00 0.00 0.00 0.00 0.00 0.00 0.00 0.00 0.01 0.01 0.02 0.01 0.00 0.00 0.00
0.00 0.00 0.00 0.00 0.00 0.00 0.00 0.00 0.00 0.00 0.00 0.00 0.00 0.01 0.00 0.00 0.00 0.00 0.00 0.00 0.00 0.00 0.00 0.00 0.00 0.00 0.00 0.00 0.00 0.00 0.00 0.00 0.00 0.00 0.00 0.00 0.00 0.00 0.00 0.00 0.00 0.01 0.01 0.01 0.01 0.01 0.00 0.00 0.00
0.00 0.00 0.00 0.00 0.00 0.00 0.00 0.00 0.00 0.00 0.00 0.00 0.00 0.01 0.00 0.00 0.00 0.00 0.00 0.00 0.00 0.00 0.00 0.00 0.00 0.00 0.00 0.00 0.00 0.00 0.00 0.00 0.00 0.00 0.00 0.00 0.00 0.00 0.00 0.00 0.00 0.01 0.02 0.01 0.01 0.00 0.00 0.00 0.00
0.00 0.00 0.00 0.00 0.00 0.00 0.00 0.00 0.00 0.00 0.00 0.00 0.00 0.00 0.00 0.00 0.00 0.00 0.00 0.00 0.00 0.00 0.00 0.00 0.00 0.00 0.00 0.00 0.00 0.00 0.00 0.00 0.00 0.00 0.00 0.00 0.00 0.00 0.00 0.01 0.00 0.01 0.02 0.01 0.01 0.00 0.00 0.00 0.00
0.00 0.00 0.00 0.00 0.00 0.00 0.00 0.00 0.00 0.00 0.00 0.00 0.00 0.00 0.00 0.00 0.00 0.00 0.00 0.00 0.00 0.00 0.00 0.00 0.00 0.00 0.00 0.00 0.00 0.00 0.00 0.00 0.00 0.00 0.00 0.00 0.00 0.00 0.01 0.00 0.00 0.01 0.01 0.01 0.01 0.00 0.00 0.00 0.00
0.00 0.00 0.00 0.00 0.00 0.00 0.01 0.01 0.01 0.01 0.00 0.00 0.00 0.00 0.00 0.00 0.00 0.00 0.00 0.00 0.00 0.00 0.00 0.00 0.00 0.00 0.00 0.00 0.00 0.00 0.00 0.00 0.00 0.00 0.00 0.00 0.00 0.00 0.00 0.00 0.00 0.01 0.01 0.01 0.00 0.00 0.00 0.00 0.00
0.00 0.00 0.00 0.00 0.00 0.00 0.01 0.02 0.02 0.01 0.00 0.00 0.00 0.00 0.00 0.00 0.00 0.00 0.00 0.00 0.00 0.00 0.00 0.00 0.00 0.00 0.00 0.00 0.00 0.00 0.00 0.00 0.00 0.00 0.00 0.00 0.00 0.00 0.00 0.00 0.00 0.00 0.00 0.00 0.00 0.00 0.00 0.00 0.00
0.00 0.00 0.00 0.00 0.00 0.00 0.00 0.01 0.02 0.01 0.00 0.00 0.00 0.00 0.00 0.00 0.00 0.00 0.00 0.00 0.00 0.00 0.00 0.00 0.00 0.00 0.00 0.00 0.00 0.00 0.00 0.00 0.00 0.00 0.00 0.00 0.00 0.00 0.00 0.00 0.00 0.00 0.00 0.00 0.00 0.00 0.00 0.00 0.00
0.00 0.00 0.00 0.00 0.00 0.00 0.00 0.00 0.00 0.01 0.00 0.00 0.00 0.00 0.00 0.00 0.00 0.00 0.00 0.00 0.00 0.00 0.00 0.00 0.00 0.00 0.00 0.00 0.00 0.00 0.00 0.00 0.00 0.00 0.00 0.00 0.00 0.00 0.00 0.00 0.00 0.00 0.00 0.00 0.00 0.00 0.00 0.00 0.00
0.00 0.00 0.00 0.00 0.00 0.00 0.00 0.00 0.00 0.00 0.00 0.00 0.00 0.00 0.00 0.00 0.00 0.00 0.00 0.00 0.00 0.00 0.00 0.00 0.00 0.00 0.00 0.00 0.00 0.00 0.00 0.00 0.00 0.00 0.00 0.00 0.00 0.00 0.00 0.00 0.00 0.00 0.00 0.00 0.00 0.00 0.00 0.00 0.00
0.00 0.00 0.00 0.00 0.00 0.00 0.00 0.00 0.00 0.00 0.00 0.00 0.00 0.00 0.00 0.00 0.00 0.00 0.00 0.00 0.00 0.00 0.00 0.00 0.00 0.00 0.00 0.00 0.00 0.00 0.00 0.00 0.00 0.00 0.00 0.00 0.00 0.00 0.00 0.00 0.00 0.00 0.00 0.00 0.00 0.00 0.00 0.00 0.00
0.00 0.00 0.00 0.00 0.00 0.00 0.00 0.00 0.00 0.00 0.00 0.00 0.00 0.00 0.00 0.00 0.00 0.00 0.00 0.00 0.00 0.00 0.00 0.00 0.00 0.00 0.00 0.00 0.00 0.00 0.00 0.00 0.00 0.00 0.00 0.00 0.00 0.00 0.00 0.00 0.01 0.01 0.01 0.01 0.00 0.00 0.00 0.00 0.00
0.00 0.00 0.00 0.00 0.00 0.00 0.00 0.00 0.00 0.00 0.00 0.00 0.00 0.00 0.00 0.00 0.00 0.00 0.00 0.00 0.00 0.00 0.00 0.00 0.00 0.00 0.00 0.00 0.00 0.00 0.00 0.00 0.00 0.00 0.00 0.00 0.00 0.00 0.01 0.02 0.04 0.04 0.03 0.03 0.02 0.02 0.02 0.01 0.01
0.00 0.00 0.00 0.00 0.00 0.00 0.00 0.00 0.00 0.00 0.00 0.00 0.00 0.00 0.00 0.00 0.00 0.00 0.00 0.00 0.00 0.00 0.00 0.00 0.00 0.00 0.01 0.01 0.00 0.00 0.00 0.01 0.01 0.01 0.01 0.01 0.01 0.02 0.03 0.05 0.07 0.08 0.09 0.09 0.08 0.07 0.05 0.04 0.03
0.00 0.00 0.00 0.00 0.00 0.00 0.00 0.00 0.00 0.00 0.00 0.00 0.00 0.00 0.00 0.00 0.00 0.00 0.00 0.00 0.00 0.00 0.00 0.00 0.00 0.01 0.01 0.01 0.01 0.02 0.04 0.06 0.06 0.05 0.06 0.06 0.08 0.11 0.13 0.14 0.15 0.15 0.13 0.12 0.10 0.08 0.06 0.04 0.02
0.00 0.00 0.00 0.00 0.00 0.00 0.00 0.00 0.00 0.00 0.00 0.00 0.00 0.00 0.00 0.00 0.00 0.00 0.00 0.00 0.00 0.00 0.01 0.00 0.01 0.02 0.04 0.05 0.09 0.14 0.18 0.18 0.16 0.15 0.18 0.24 0.32 0.33 0.31 0.29 0.26 0.23 0.18 0.14 0.10 0.06 0.03 0.02 0.01
0.00 0.00 0.00 0.00 0.00 0.00 0.00 0.00 0.00 0.00 0.00 0.00 0.00 0.00 0.00 0.00 0.00 0.00 0.00 0.00 0.00 0.01 0.01 0.01 0.02 0.06 0.13 0.21 0.31 0.37 0.37 0.33 0.29 0.31 0.38 0.47 0.52 0.49 0.46 0.43 0.38 0.31 0.21 0.14 0.08 0.04 0.02 0.00 0.00
0.00 0.00 0.00 0.00 0.00 0.00 0.00 0.00 0.00 0.00 0.00 0.00 0.00 0.00 0.00 0.00 0.00 0.00 0.00 0.00 0.00 0.01 0.01 0.02 0.05 0.13 0.29 0.44 0.57 0.59 0.54 0.47 0.42 0.43 0.49 0.56 0.59 0.58 0.55 0.45 0.33 0.21 0.12 0.07 0.04 0.01 0.00 0.00 0.00
0.00 0.00 0.00 0.00 0.00 0.00 0.00 0.00 0.00 0.00 0.00 0.00 0.00 0.00 0.00 0.00 0.00 0.00 0.00 0.00 0.00 0.01 0.03 0.04 0.08 0.24 0.45 0.59 0.72 0.76 0.70 0.62 0.59 0.59 0.61 0.62 0.60 0.54 0.41 0.26 0.15 0.08 0.05 0.04 0.02 0.00 0.00 0.00 0.00
0.00 0.00 0.00 0.00 0.00 0.00 0.00 0.00 0.00 0.00 0.00 0.00 0.00 0.00 0.00 0.00 0.00 0.00 0.00 0.00 0.01 0.03 0.04 0.05 0.14 0.35 0.58 0.73 0.85 0.86 0.83 0.77 0.69 0.64 0.63 0.58 0.47 0.31 0.17 0.09 0.06 0.04 0.02 0.01 0.00 0.00 0.00 0.00 0.00
0.00 0.00 0.00 0.00 0.00 0.00 0.00 0.00 0.00 0.00 0.00 0.00 0.00 0.00 0.00 0.00 0.00 0.00 0.00 0.01 0.02 0.04 0.05 0.09 0.23 0.49 0.73 0.86 0.91 0.87 0.78 0.67 0.59 0.52 0.41 0.32 0.22 0.14 0.08 0.03 0.01 0.01 0.00 0.00 0.00 0.00 0.00 0.00 0.00
0.00 0.00 0.00 0.00 0.00 0.00 0.00 0.00 0.00 0.00 0.00 0.00 0.00 0.00 0.00 0.00 0.00 0.00 0.00 0.02 0.05 0.07 0.12 0.22 0.41 0.64 0.80 0.85 0.79 0.69 0.59 0.47 0.36 0.27 0.18 0.11 0.06 0.03 0.01 0.01 0.00 0.00 0.00 0.00 0.00 0.00 0.00 0.00 0.00
0.00 0.00 0.00 0.00 0.00 0.00 0.00 0.00 0.00 0.00 0.00 0.00 0.00 0.00 0.01 0.01 0.00 0.01 0.01 0.03 0.08 0.12 0.17 0.29 0.47 0.62 0.65 0.60 0.58 0.52 0.43 0.32 0.21 0.12 0.06 0.02 0.01 0.00 0.00 0.00 0.00 0.00 0.00 0.00 0.00 0.00 0.00 0.00 0.00
0.00 0.00 0.00 0.00 0.00 0.00 0.00 0.00 0.00 0.00 0.00 0.01 0.00 0.01 0.01 0.01 0.01 0.02 0.02 0.04 0.09 0.13 0.18 0.26 0.35 0.42 0.40 0.37 0.36 0.32 0.24 0.15 0.09 0.05 0.02 0.01 0.00 0.00 0.00 0.00 0.00 0.00 0.00 0.00 0.00 0.00 0.00 0.00 0.00
0.00 0.00 0.00 0.00 0.00 0.00 0.00 0.00 0.00 0.00 0.00 0.01 0.01 0.01 0.01 0.02 0.03 0.03 0.04 0.06 0.09 0.12 0.16 0.20 0.22 0.23 0.24 0.23 0.21 0.17 0.11 0.06 0.03 0.02 0.01 0.00 0.00 0.00 0.00 0.00 0.00 0.00 0.00 0.00 0.00 0.00 0.00 0.00 0.00
0.00 0.00 0.00 0.00 0.00 0.00 0.00 0.00 0.00 0.01 0.01 0.01 0.01 0.01 0.01 0.02 0.03 0.03 0.04 0.05 0.07 0.08 0.10 0.11 0.14 0.17 0.18 0.16 0.12 0.08 0.05 0.03 0.01 0.01 0.00 0.00 0.00 0.00 0.00 0.00 0.00 0.00 0.00 0.00 0.00 0.00 0.00 0.00 0.00
0.00 0.00 0.00 0.00 0.00 0.00 0.00 0.00 0.00 0.01 0.01 0.01 0.01 0.01 0.02 0.02 0.03 0.03 0.03 0.03 0.04 0.06 0.07 0.09 0.10 0.10 0.09 0.07 0.05 0.03 0.02 0.01 0.01 0.00 0.00 0.00 0.00 0.00 0.00 0.00 0.00 0.00 0.00 0.00 0.00 0.00 0.00 0.00 0.00
MSLP
1012.03 1013.18 1014.47 1015.66 1016.56 1017.03 1017.03 1016.62 1015.92 1015.13 1014.43 1013.95 1013.73 1013.75 1013.92 1014.12 1014.21 1014.12 1013.85 1013.44 1013.00 1012.63 1012.44 1012.48 1012.74 1013.17 1013.66 1014.15 1014.54 1014.82 1014.99 1015.10 1015.21 1015.38 1015.63 1015.96 1016.34 1016.72 1017.04 1017.27 1017.39 1017.44 1017.45 1017.46 1017.51 1017.62 1017.79 1017.97 1018.15
1012.58 1013.90 1015.25 1016.40 1017.17 1017.42 1017.16 1016.47 1015.51 1014.50 1013.63 1013.04 1012.77 1012.79 1012.99 1013.23 1013.39 1013.38 1013.20 1012.89 1012.55 1012.30 1012.22 1012.36 1012.71 1013.21 1013.76 1014.28 1014.70 1015.00 1015.20 1015.33 1015.47 1015.66 1015.93 1016.26 1016.61 1016.94 1017.21 1017.39 1017.47 1017.49 1017.48 1017.50 1017.56 1017.68 1017.85 1018.03 1018.18
1013.20 1014.60 1015.94 1017.00 1017.59 1017.63 1017.12 1016.20 1015.05 1013.90 1012.94 1012.30 1012.03 1012.06 1012.29 1012.58 1012.79 1012.84 1012.74 1012.52 1012.29 1012.14 1012.16 1012.39 1012.80 1013.34 1013.91 1014.44 1014.86 1015.17 1015.37 1015.53 1015.68 1015.88 1016.15 1016.45 1016.77 1017.06 1017.27 1017.39 1017.44 1017.44 1017.44 1017.47 1017.57 1017.71 1017.90 1018.07 1018.20
1013.83 1015.23 1016.50 1017.40 1017.80 1017.62 1016.92 1015.84 1014.59 1013.38 1012.41 1011.80 1011.56 1011.63 1011.90 1012.22 1012.47 1012.57 1012.52 1012.38 1012.23 1012.17 1012.27 1012.56 1013.00 1013.55 1014.11 1014.61 1015.00 1015.29 1015.48 1015.64 1015.80 1016.01 1016.26 1016.55 1016.84 1017.08 1017.25 1017.33 1017.36 1017.36 1017.38 1017.45 1017.58 1017.77 1017.97 1018.15 1018.28
1014.41 1015.74 1016.86 1017.57 1017.76 1017.40 1016.56 1015.40 1014.12 1012.95 1012.05 1011.52 1011.35 1011.49 1011.79 1012.14 1012.41 1012.54 1012.54 1012.45 1012.37 1012.38 1012.53 1012.84 1013.28 1013.80 1014.31 1014.75 1015.09 1015.34 1015.51 1015.66 1015.83 1016.04 1016.30 1016.57 1016.84 1017.05 1017.19 1017.26 1017.28 1017.30 1017.35 1017.47 1017.64 1017.86 1018.10 1018.29 1018.41
1014.90 1016.08 1016.99 1017.48 1017.46 1016.94 1016.02 1014.85 1013.64 1012.58 1011.81 1011.40 1011.34 1011.54 1011.88 1012.24 1012.52 1012.67 1012.69 1012.65 1012.62 1012.67 1012.85 1013.16 1013.57 1014.03 1014.47 1014.83 1015.11 1015.31 1015.45 1015.60 1015.78 1016.01 1016.28 1016.56 1016.82 1017.03 1017.16 1017.22 1017.26 1017.30 1017.38 1017.53 1017.75 1018.00 1018.26 1018.45 1018.57
1015.22 1016.21 1016.88 1017.12 1016.91 1016.27 1015.31 1014.19 1013.09 1012.19 1011.59 1011.33 1011.37 1011.64 1012.02 1012.38 1012.66 1012.82 1012.86 1012.86 1012.86 1012.95 1013.14 1013.44 1013.82 1014.21 1014.57 1014.85 1015.06 1015.22 1015.35 1015.50 1015.70 1015.96 1016.26 1016.56 1016.83 1017.04 1017.18 1017.25 1017.29 1017.35 1017.46 1017.64 1017.88 1018.15 1018.41 1018.61 1018.72
1015.36 1016.11 1016.52 1016.53 1016.13 1015.40 1014.44 1013.41 1012.47 1011.74 1011.32 1011.20 1011.35 1011.67 1012.06 1012.43 1012.70 1012.86 1012.93 1012.96 1013.01 1013.13 1013.34 1013.63 1013.97 1014.30 1014.59 1014.81 1014.97 1015.10 1015.23 1015.40 1015.63 1015.93 1016.27 1016.60 1016.89 1017.12 1017.26 1017.34 1017.39 1017.46 1017.58 1017.76 1018.00 1018.27 1018.52 1018.70 1018.80
1015.30 1015.80 1015.95 1015.75 1015.21 1014.41 1013.49 1012.57 1011.78 1011.23 1010.97 1010.97 1011.20 1011.55 1011.94 1012.30 1012.56 1012.72 1012.82 1012.89 1013.00 1013.17 1013.40 1013.70 1014.02 1014.31 1014.55 1014.74 1014.87 1014.99 1015.13 1015.33 1015.60 1015.94 1016.32 1016.68 1017.00 1017.23 1017.38 1017.46 1017.52 1017.59 1017.70 1017.87 1018.10 1018.34 1018.57 1018.74 1018.82
1015.07 1015.33 1015.26 1014.87 1014.22 1013.40 1012.52 1011.72 1011.08 1010.68 1010.55 1010.64 1010.91 1011.27 1011.65 1011.98 1012.23 1012.40 1012.53 1012.66 1012.82 1013.05 1013.33 1013.64 1013.96 1014.24 1014.47 1014.64 1014.77 1014.90 1015.06 1015.30 1015.61 1015.99 1016.39 1016.78 1017.11 1017.35 1017.51 1017.60 1017.65 1017.72 1017.82 1017.97 1018.17 1018.39 1018.59 1018.73 1018.81
1014.71 1014.77 1014.51 1013.99 1013.27 1012.46 1011.66 1010.96 1010.46 1010.18 1010.13 1010.28 1010.56 1010.89 1011.23 1011.53 1011.77 1011.95 1012.12 1012.30 1012.52 1012.80 1013.13 1013.48 1013.82 1014.11 1014.35 1014.53 1014.68 1014.83 1015.03 1015.29 1015.63 1016.03 1016.44 1016.85 1017.19 1017.44 1017.61 1017.71 1017.78 1017.84 1017.94 1018.08 1018.25 1018.44 1018.61 1018.74 1018.81
1014.30 1014.20 1013.82 1013.21 1012.48 1011.70 1010.98 1010.40 1010.00 1009.81 1009.81 1009.96 1010.21 1010.50 1010.79 1011.04 1011.26 1011.45 1011.64 1011.86 1012.14 1012.47 1012.84 1013.22 1013.59 1013.91 1014.18 1014.39 1014.57 1014.76 1014.98 1015.27 1015.62 1016.02 1016.44 1016.84 1017.19 1017.47 1017.66 1017.79 1017.89 1017.97 1018.08 1018.22 1018.38 1018.56 1018.72 1018.84 1018.91
1013.92 1013.71 1013.25 1012.62 1011.90 1011.20 1010.57 1010.08 1009.76 1009.62 1009.63 1009.76 1009.96 1010.18 1010.40 1010.60 1010.78 1010.96 1011.16 1011.40 1011.71 1012.07 1012.47 1012.89 1013.29 1013.64 1013.95 1014.20 1014.43 1014.65 1014.90 1015.20 1015.55 1015.94 1016.35 1016.75 1017.11 1017.41 1017.65 1017.83 1017.98 1018.12 1018.27 1018.43 1018.61 1018.79 1018.94 1019.07 1019.15
1013.62 1013.35 1012.86 1012.26 1011.61 1010.99 1010.45 1010.05 1009.78 1009.66 1009.64 1009.71 1009.83 1009.97 1010.11 1010.24 1010.37 1010.52 1010.71 1010.95 1011.25 1011.62 1012.03 1012.46 1012.88 1013.28 1013.63 1013.93 1014.21 1014.47 1014.75 1015.05 1015.39 1015.77 1016.17 1016.57 1016.94 1017.29 1017.59 1017.85 1018.09 1018.31 1018.53 1018.74 1018.95 1019.15 1019.32 1019.45 1019.55
1013.46 1013.15 1012.68 1012.14 1011.57 1011.05 1010.61 1010.26 1010.02 1009.87 1009.80 1009.79 1009.81 1009.85 1009.89 1009.95 1010.02 1010.13 1010.28 1010.49 1010.76 1011.10 1011.50 1011.93 1012.38 1012.81 1013.21 1013.59 1013.92 1014.24 1014.54 1014.86 1015.19 1015.55 1015.94 1016.33 1016.74 1017.13 1017.52 1017.88 1018.22 1018.55 1018.85 1019.13 1019.39 1019.62 1019.81 1019.96 1020.08
1013.43 1013.12 1012.70 1012.23 1011.77 1011.34 1010.97 1010.65 1010.40 1010.20 1010.04 1009.92 1009.82 1009.75 1009.70 1009.68 1009.68 1009.73 1009.82 1009.98 1010.21 1010.52 1010.89 1011.31 1011.78 1012.26 1012.73 1013.18 1013.59 1013.97 1014.32 1014.66 1014.99 1015.34 1015.72 1016.13 1016.56 1017.01 1017.48 1017.94 1018.40 1018.82 1019.22 1019.58 1019.89 1020.15 1020.36 1020.53 1020.65
1013.50 1013.22 1012.87 1012.50 1012.13 1011.79 1011.46 1011.15 1010.85 1010.57 1010.29 1010.04 1009.81 1009.62 1009.47 1009.36 1009.30 1009.28 1009.32 1009.43 1009.60 1009.86 1010.21 1010.63 1011.13 1011.67 1012.22 1012.77 1013.27 1013.74 1014.15 1014.52 1014.87 1015.22 1015.60 1016.01 1016.47 1016.98 1017.52 1018.07 1018.62 1019.14 1019.61 1020.02 1020.37 1020.66 1020.89 1021.06 1021.20
1013.63 1013.40 1013.15 1012.88 1012.61 1012.33 1012.03 1011.69 1011.32 1010.90 1010.49 1010.08 1009.71 1009.40 1009.15 1008.96 1008.84 1008.78 1008.77 1008.82 1008.96 1009.19 1009.52 1009.96 1010.49 1011.11 1011.76 1012.42 1013.04 1013.60 1014.10 1014.52 1014.90 1015.26 1015.64 1016.06 1016.53 1017.07 1017.66 1018.27 1018.88 1019.46 1019.98 1020.42 1020.79 1021.09 1021.32 1021.50 1021.64
1013.76 1013.62 1013.47 1013.32 1013.16 1012.93 1012.63 1012.24 1011.75 1011.20 1010.61 1010.04 1009.53 1009.09 1008.75 1008.50 1008.33 1008.24 1008.20 1008.23 1008.35 1008.56 1008.90 1009.36 1009.96 1010.66 1011.43 1012.21 1012.95 1013.63 1014.21 1014.70 1015.11 1015.49 1015.87 1016.28 1016.76 1017.31 1017.91 1018.55 1019.18 1019.78 1020.30 1020.75 1021.11 1021.40 1021.62 1021.80 1021.94
1013.82 1013.81 1013.80 1013.79 1013.73 1013.56 1013.25 1012.78 1012.18 1011.46 1010.70 1009.96 1009.30 1008.75 1008.33 1008.04 1007.85 1007.74 1007.70 1007.74 1007.85 1008.08 1008.44 1008.95 1009.62 1010.41 1011.29 1012.18 1013.05 1013.83 1014.50 1015.05 1015.51 1015.90 1016.28 1016.68 1017.15 1017.68 1018.27 1018.89 1019.50 1020.08 1020.58 1021.00 1021.33 1021.59 1021.79 1021.96 1022.11
1013.78 1013.93 1014.10 1014.24 1014.30 1014.19 1013.87 1013.34 1012.61 1011.74 1010.81 1009.92 1009.12 1008.48 1008.00 1007.67 1007.48 1007.40 1007.38 1007.44 1007.59 1007.85 1008.24 1008.80 1009.53 1010.40 1011.36 1012.36 1013.32 1014.19 1014.94 1015.55 1016.03 1016.43 1016.81 1017.19 1017.63 1018.13 1018.68 1019.26 1019.83 1020.36 1020.81 1021.18 1021.46 1021.68 1021.86 1022.02 1022.17
1013.61 1013.95 1014.32 1014.65 1014.83 1014.80 1014.50 1013.91 1013.08 1012.08 1011.01 1009.98 1009.08 1008.37 1007.85 1007.53 1007.36 1007.30 1007.34 1007.44 1007.63 1007.92 1008.35 1008.95 1009.72 1010.63 1011.65 1012.71 1013.73 1014.66 1015.45 1016.09 1016.59 1017.00 1017.37 1017.73 1018.14 1018.60 1019.10 1019.63 1020.15 1020.61 1021.01 1021.32 1021.56 1021.74 1021.89 1022.03 1022.19
1013.32 1013.87 1014.45 1014.97 1015.30 1015.36 1015.09 1014.48 1013.58 1012.49 1011.33 1010.21 1009.24 1008.49 1007.96 1007.66 1007.53 1007.53 1007.61 1007.77 1007.99 1008.32 1008.77 1009.38 1010.15 1011.08 1012.10 1013.17 1014.20 1015.14 1015.95 1016.60 1017.11 1017.51 1017.87 1018.22 1018.60 1019.03 1019.49 1019.97 1020.44 1020.85 1021.19 1021.46 1021.65 1021.80 1021.93 1022.06 1022.21
1012.93 1013.68 1014.47 1015.18 1015.66 1015.82 1015.61 1015.01 1014.09 1012.96 1011.75 1010.60 1009.61 1008.85 1008.35 1008.09 1008.01 1008.07 1008.21 1008.41 1008.67 1009.00 1009.45 1010.04 1010.79 1011.67 1012.65 1013.68 1014.67 1015.59 1016.37 1017.00 1017.51 1017.91 1018.26 1018.60 1018.96 1019.37 1019.81 1020.26 1020.69 1021.07 1021.38 1021.61 1021.77 1021.90 1022.01 1022.13 1022.27
1012.48 1013.41 1014.37 1015.24 1015.86 1016.12 1015.97 1015.42 1014.53 1013.41 1012.22 1011.09 1010.14 1009.43 1008.98 1008.78 1008.76 1008.88 1009.07 1009.30 1009.57 1009.91 1010.32 1010.86 1011.54 1012.35 1013.25 1014.19 1015.11 1015.96 1016.69 1017.29 1017.77 1018.17 1018.52 1018.86 1019.23 1019.63 1020.06 1020.50 1020.92 1021.28 1021.57 1021.78 1021.94 1022.05 1022.15 1022.26 1022.39
1012.02 1013.07 1014.16 1015.13 1015.85 1016.20 1016.13 1015.65 1014.82 1013.78 1012.66 1011.62 1010.75 1010.13 1009.77 1009.64 1009.70 1009.87 1010.10 1010.35 1010.63 1010.93 1011.30 1011.77 1012.36 1013.06 1013.85 1014.68 1015.50 1016.26 1016.93 1017.49 1017.94 1018.33 1018.68 1019.03 1019.41 1019.82 1020.27 1020.71 1021.12 1021.48 1021.77 1021.98 1022.13 1022.24 1022.33 1022.42 1022.54
1011.62 1012.72 1013.85 1014.87 1015.64 1016.04 1016.03 1015.63 1014.91 1013.98 1013.00 1012.09 1011.36 1010.86 1010.62 1010.59 1010.72 1010.95 1011.21 1011.47 1011.73 1012.00 1012.31 1012.70 1013.19 1013.78 1014.45 1015.17 1015.88 1016.55 1017.15 1017.66 1018.09 1018.47 1018.83 1019.19 1019.58 1020.01 1020.46 1020.91 1021.33 1021.69 1021.98 1022.19 1022.34 1022.44 1022.53 1022.61 1022.70
1011.33 1012.39 1013.49 1014.49 1015.24 1015.65 1015.69 1015.37 1014.77 1013.99 1013.18 1012.45 1011.89 1011.56 1011.45 1011.53 1011.74 1012.02 1012.30 1012.57 1012.81 1013.04 1013.30 1013.61 1014.01 1014.50 1015.07 1015.68 1016.30 1016.89 1017.43 1017.90 1018.31 1018.68 1019.04 1019.41 1019.81 1020.25 1020.70 1021.15 1021.56 1021.92 1022.20 1022.41 1022.55 1022.65 1022.72 1022.78 1022.85
1011.19 1012.15 1013.15 1014.04 1014.71 1015.09 1015.15 1014.90 1014.43 1013.82 1013.21 1012.69 1012.34 1012.19 1012.23 1012.42 1012.71 1013.04 1013.34 1013.60 1013.82 1014.02 1014.23 1014.49 1014.83 1015.24 1015.73 1016.26 1016.81 1017.34 1017.83 1018.27 1018.67 1019.03 1019.39 1019.76 1020.16 1020.59 1021.03 1021.45 1021.85 1022.18 1022.44 1022.63 1022.76 1022.84 1022.89 1022.93 1022.97
1011.25 1012.05 1012.87 1013.60 1014.15 1014.46 1014.51 1014.33 1013.98 1013.56 1013.16 1012.87 1012.73 1012.77 1012.96 1013.27 1013.63 1013.99 1014.31 1014.56 1014.77 1014.94 1015.12 1015.34 1015.63 1016.00 1016.44 1016.93 1017.43 1017.93 1018.39 1018.81 1019.19 1019.55 1019.90 1020.27 1020.65 1021.05 1021.46 1021.85 1022.20 1022.49 1022.71 1022.87 1022.97 1023.02 1023.04 1023.05 1023.05
Thickness
5774 5774 5772 5765 5744 5722 5727 5746 5762 5773 5780 5789 5789 5782 5773 5769 5763 5761 5780 5789 5787 5781 5776 5772 5769 5766 5764 5761 5759 5757 5755 5753 5751 5750 5748 5747 5746 5745 5743 5742 5741 5741 5741 5740 5739 5739 5739 5738 5738
5772 5770 5763 5748 5723 5709 5722 5749 5761 5775 5786 5791 5789 5784 5776 5773 5778 5778 5781 5785 5785 5780 5775 5771 5768 5764 5761 5759 5756 5754 5752 5749 5747 5745 5744 5743 5742 5741 5740 5739 5738 5737 5737 5737 5736 5735 5735 5735 5735
5771 5767 5748 5729 5714 5714 5734 5761 5769 5783 5792 5792 5784 5783 5778 5774 5779 5780 5785 5785 5782 5778 5774 5770 5766 5763 5760 5757 5754 5751 5749 5746 5744 5742 5740 5739 5738 5737 5736 5736 5735 5735 5734 5734 5733 5732 5731 5731 5731
5764 5751 5736 5720 5719 5728 5746 5768 5779 5782 5789 5792 5783 5774 5781 5789 5788 5788 5789 5786 5781 5777 5774 5770 5765 5762 5759 5755 5753 5750 5747 5743 5741 5739 5737 5736 5736 5735 5734 5733 5733 5732 5731 5730 5729 5728 5727 5728 5728
5755 5737 5720 5709 5721 5739 5756 5773 5783 5781 5784 5787 5780 5769 5775 5791 5795 5792 5789 5786 5781 5777 5774 5769 5765 5761 5758 5754 5751 5749 5746 5743 5740 5737 5735 5734 5734 5733 5732 5731 5730 5729 5728 5727 5725 5724 5724 5724 5725
5736 5724 5704 5702 5722 5744 5762 5777 5783 5782 5783 5785 5779 5769 5775 5791 5793 5791 5789 5785 5781 5777 5772 5768 5764 5760 5757 5754 5750 5747 5745 5742 5740 5737 5735 5733 5732 5731 5730 5729 5728 5726 5725 5724 5722 5721 5720 5720 5721
5729 5716 5708 5716 5728 5744 5766 5781 5781 5781 5781 5785 5785 5768 5775 5787 5794 5793 5789 5784 5779 5775 5770 5766 5763 5759 5756 5753 5750 5747 5744 5742 5740 5737 5735 5733 5731 5730 5729 5727 5726 5725 5723 5721 5720 5718 5716 5717 5717
5738 5722 5718 5720 5730 5746 5772 5781 5786 5785 5784 5795 5791 5771 5773 5789 5795 5792 5786 5780 5776 5773 5769 5765 5762 5759 5755 5752 5749 5747 5744 5741 5739 5737 5735 5733 5731 5729 5727 5726 5724 5722 5721 5719 5717 5714 5713 5712 5712
5741 5717 5711 5725 5736 5754 5773 5777 5786 5795 5791 5793 5794 5791 5795 5798 5794 5787 5780 5776 5773 5771 5768 5765 5762 5759 5756 5752 5749 5746 5743 5741 5738 5736 5733 5731 5729 5727 5725 5723 5721 5719 5717 5715 5713 5711 5709 5708 5707
5732 5714 5723 5743 5755 5764 5771 5777 5785 5787 5784 5786 5790 5796 5800 5795 5790 5784 5779 5775 5773 5771 5769 5766 5764 5761 5757 5753 5750 5746 5743 5740 5736 5734 5731 5729 5727 5725 5722 5720 5718 5716 5713 5711 5709 5707 5706 5705 5704
5734 5727 5739 5752 5764 5769 5770 5777 5788 5784 5777 5786 5790 5792 5794 5791 5787 5785 5783 5780 5778 5776 5772 5769 5766 5763 5759 5756 5751 5747 5743 5739 5736 5732 5729 5727 5724 5721 5719 5717 5715 5713 5711 5708 5707 5704 5703 5701 5701
5736 5740 5748 5757 5767 5767 5770 5778 5781 5786 5795 5805 5803 5799 5797 5792 5790 5789 5787 5784 5781 5777 5774 5772 5769 5765 5761 5758 5753 5749 5744 5740 5736 5732 5728 5724 5721 5718 5716 5713 5711 5709 5707 5705 5703 5701 5698 5697 5696
5740 5743 5753 5759 5762 5765 5771 5774 5780 5788 5805 5805 5803 5796 5795 5796 5796 5795 5792 5787 5783 5778 5776 5773 5770 5766 5763 5758 5754 5749 5745 5741 5736 5732 5727 5723 5720 5717 5714 5711 5708 5705 5703 5701 5699 5696 5693 5691 5690
5743 5745 5751 5756 5761 5768 5770 5774 5777 5791 5802 5799 5797 5795 5796 5797 5798 5794 5790 5787 5784 5782 5778 5775 5770 5767 5763 5758 5754 5749 5744 5740 5735 5731 5727 5722 5719 5716 5713 5709 5705 5702 5699 5697 5694 5690 5687 5684 5682
5742 5741 5746 5755 5762 5769 5770 5767 5776 5794 5797 5792 5793 5795 5794 5795 5796 5797 5796 5792 5789 5785 5781 5776 5772 5766 5762 5757 5752 5746 5741 5737 5732 5728 5724 5720 5716 5713 5710 5705 5701 5696 5693 5690 5686 5683 5680 5677 5674
5734 5730 5728 5747 5758 5765 5762 5754 5779 5791 5789 5785 5788 5790 5791 5793 5796 5799 5798 5795 5791 5786 5781 5776 5772 5766 5760 5754 5749 5744 5738 5732 5728 5723 5719 5715 5711 5708 5704 5699 5693 5689 5685 5681 5677 5673 5669 5666 5663
5711 5712 5722 5738 5752 5755 5753 5752 5773 5784 5782 5781 5783 5786 5788 5789 5792 5797 5798 5796 5793 5789 5782 5775 5770 5764 5757 5751 5746 5741 5735 5728 5722 5717 5714 5709 5705 5700 5695 5688 5682 5679 5674 5669 5666 5661 5659 5655 5653
5702 5711 5719 5727 5741 5743 5742 5747 5764 5774 5775 5776 5780 5782 5783 5786 5796 5800 5798 5796 5793 5789 5783 5776 5768 5761 5753 5746 5740 5734 5727 5720 5714 5709 5706 5702 5696 5690 5684 5677 5671 5667 5662 5657 5654 5651 5648 5645 5643
5711 5712 5713 5722 5736 5737 5737 5740 5755 5766 5766 5768 5772 5776 5780 5789 5799 5796 5795 5794 5791 5787 5781 5775 5766 5758 5749 5740 5733 5724 5714 5708 5702 5699 5695 5692 5686 5680 5674 5667 5662 5658 5652 5647 5645 5642 5638 5634 5632
5704 5704 5708 5719 5731 5735 5731 5734 5752 5761 5763 5766 5770 5774 5780 5785 5787 5788 5791 5791 5790 5786 5779 5772 5764 5755 5746 5738 5728 5719 5708 5699 5692 5686 5683 5680 5675 5670 5665 5660 5655 5649 5643 5638 5635 5633 5628 5622 5620
5693 5696 5703 5707 5714 5720 5722 5720 5739 5757 5760 5763 5767 5772 5777 5780 5782 5785 5786 5786 5784 5781 5777 5770 5761 5751 5742 5732 5719 5709 5698 5689 5680 5675 5673 5670 5666 5662 5657 5652 5646 5639 5634 5628 5625 5623 5619 5613 5608
5684 5700 5701 5702 5696 5688 5703 5687 5720 5738 5742 5752 5756 5759 5765 5774 5781 5783 5782 5780 5779 5778 5773 5765 5755 5745 5735 5726 5715 5703 5691 5679 5672 5667 5662 5659 5656 5652 5647 5642 5635 5629 5624 5620 5616 5612 5608 5604 5599
5692 5701 5697 5697 5690 5682 5688 5681 5699 5720 5731 5742 5746 5750 5755 5764 5772 5777 5777 5775 5772 5769 5763 5756 5746 5736 5726 5717 5707 5696 5685 5673 5664 5658 5653 5649 5646 5641 5637 5633 5627 5621 5616 5611 5606 5601 5597 5593 5587
5697 5691 5680 5670 5667 5665 5683 5675 5686 5705 5718 5727 5736 5741 5747 5756 5762 5765 5764 5762 5758 5755 5751 5744 5736 5724 5714 5704 5693 5684 5675 5665 5656 5649 5644 5639 5636 5632 5628 5623 5618 5612 5606 5601 5596 5590 5585 5580 5574
5686 5666 5647 5653 5645 5656 5685 5681 5684 5709 5717 5720 5724 5731 5739 5745 5748 5749 5748 5746 5743 5740 5735 5729 5722 5710 5701 5693 5682 5674 5665 5657 5650 5642 5636 5631 5627 5622 5617 5613 5607 5601 5596 5590 5584 5579 5573 5567 5561
5676 5668 5647 5643 5646 5658 5677 5673 5688 5709 5715 5717 5718 5722 5728 5732 5734 5733 5732 5730 5727 5723 5718 5713 5707 5698 5691 5683 5674 5666 5657 5649 5641 5635 5629 5625 5620 5614 5608 5602 5596 5590 5584 5578 5572 5567 5561 5555 5549
5675 5669 5678 5659 5656 5655 5662 5677 5691 5703 5706 5707 5708 5711 5715 5718 5719 5718 5715 5712 5709 5705 5701 5697 5692 5686 5678 5671 5665 5655 5647 5640 5633 5627 5621 5616 5610 5604 5597 5591 5584 5578 5572 5566 5560 5554 5547 5541 5535
5691 5679 5658 5650 5640 5643 5662 5670 5671 5686 5693 5697 5699 5700 5702 5704 5704 5702 5699 5696 5692 5689 5686 5682 5677 5671 5664 5657 5650 5642 5635 5629 5622 5616 5610 5604 5598 5592 5585 5579 5572 5566 5560 5553 5546 5539 5532 5526 5520
5678 5674 5666 5653 5656 5646 5645 5657 5676 5681 5688 5688 5688 5689 5690 5690 5689 5687 5683 5680 5677 5674 5671 5666 5660 5655 5649 5642 5635 5628 5621 5615 5610 5603 5597 5591 5585 5578 5572 5565 5559 5552 5545 5538 5531 5524 5518 5512 5505
5685 5676 5663 5657 5654 5653 5651 5652 5677 5681 5683 5680 5677 5675 5675 5675 5674 5672 5670 5667 5664 5660 5656 5652 5646 5640 5633 5627 5621 5614 5608 5603 5596 5588 5582 5576 5570 5563 5557 5550 5544 5537 5529 5522 5516 5510 5503 5496 5489